User: anonymous   Login
Location: *
(50.8512°N, 5.6907°E)
Time: 00:08:13
(UTC+00:00)
Language:

Cosmos 1356 Rocket - Orbit

View from above orbital plane
View from above orbital plane
View from above satellite
View from above satellite

Ground track
Ground track

The orbit data is extracted from the following two-line orbital elements,

1 13154U 82039B   20188.56044130 +.00000213 +00000-0 +15652-4 0  9997
2 13154 081.1833 050.7544 0038902 258.9726 100.7117 14.98747300070519
Epoch (UTC): 06 July 2020 13:27:02
Eccentricity: 0.0038902
inclination: 81.1833°
perigee height: 544 km
apogee height: 598 km
right ascension of ascending node: 50.7544°
argument of perigee: 258.9726°
revolutions per day: 14.98747300
mean anomaly at epoch: 100.7117°
orbit number at epoch: 7051

The dashed part of the orbit path shows where the satellite is in the earth's shadow,  

DLR